map of UDJ home
UDJ - Airport
Location
City:  Uzhgorod, Zakarpattia, Ukraine
ICAO:UKLU
IATA:UDJ

Details
Type:Airport (Aerodrome, Airfield)
Use:International (customs port of entry)
Latitude:4838'03"N (48.634278)
Longitude:2215'48"E (22.263356)
Datum:WGS 1984
Elevation:383 ft (117 m)
Variation:5.66E (WMM2015 magnetic declination)
0.12 annual change
Runways:1
Longest:6686 × 131 ft (2038 × 40 m), paved

Time
Time Zone:UTC+2 (DST+3)
Local Time:

Weather
METAR:UKLU 111030Z 10001MPS 9000 BKN030 M00/M01 Q1013 R10/190065 NOSIG

Related Locations
Nearby:
Farthest:CHT: 11484 mi / 18482 km
Waitangi [Tuuta], CIT, NZ

Find:

   beyond  
but within

Other Information
Maps:
NOTAMs:
Links:
Sources:

  
  • flag of Ukraine
  • flag of Zakarpattia
  

Sectional Chart

Flight Planning
at skyvector.com

Satellite Image

Google Maps Satellite view

 

Copyright © 2004-2018 Karl L. Swartz. All rights reserved.
The Great Circle Mapper name and logo are trademarks of the Great Circle Mapper.
All other trademarks mentioned herein belong to their respective owners.
Please see credits for attibutions and further copyright information.

  Follow gcmap on Facebook Follow gcmap on Twitter Follow gcmap on Google+ GCmap on LinkedIn

hCard Microformat

Geo Microformat